Simultaneous Nadir Overpasses (SNOs) Predictions

Prediction of SNOs between LANDSAT-8 and METOP-A Satellite Orbit:

Table of predicted SNOs for the next 14.0 days since TLE Epoch: 1/1/2016
Index Date (LANDSAT-8) Time (LANDSAT-8) Lat,Lon (LANDSAT-8) SZA (LANDSAT-8 ) Date (METOP-A) Time (METOP-A) Lat,Lon (METOP-A) SZA (METOP-A ) Distance(km) Time Diff (sec)
1 01/03/2016 09:28:56 -81.12,-102.51 74.22 01/03/2016 09:28:45 -81.11,-102.65 74.24 2.44 11
2 01/03/2016 10:18:21 81.15, 65.60 105.84 01/03/2016 10:19:23 81.15, 65.72 105.88 2.00 62
3 01/06/2016 05:03:10 -81.12, -36.07 74.55 01/06/2016 05:03:08 -81.12, -36.10 74.55 0.55 2
4 01/06/2016 05:52:35 81.14, 132.01 105.52 01/06/2016 05:53:47 81.14, 131.89 105.53 2.23 72
5 01/08/2016 23:47:57 81.11,-137.31 105.07 01/08/2016 23:46:51 81.11,-137.24 105.05 1.35 66
6 01/09/2016 00:37:23 -81.13, 30.65 74.89 01/09/2016 00:37:30 -81.13, 30.79 74.88 2.37 7
7 01/11/2016 19:22:10 81.10, -71.06 104.61 01/11/2016 19:21:14 81.10, -71.13 104.58 1.22 56
8 01/11/2016 20:11:36 -81.12, 96.94 75.35 01/11/2016 20:11:53 -81.12, 96.90 75.35 0.57 17
9 01/14/2016 14:56:23 81.11, -4.52 104.13 01/14/2016 14:55:37 81.10, -4.67 104.10 2.77 46




NCC Satellite Simultaneous Nadir Overpasses (SNOs) Prediction Service
